Regional Weather Roundup
Issued by NWS Kansas City/Pleasant Hill, MO

Home | Current Version | Previous Version | Graphics & Text | Print | Product List | Glossary Off
Versions: 1 2 3 4 5 6 7 8 9 10 11 12 13 14 15 16 17 18 19 20 21 22 23 24 25 26 27 28 29 30 31 32 33 34 35 36 37 38 39 40 41 42 43 44 45 46 47 48 49 50

000
ASUS43 KEAX 220511
RWREAX

WEATHER ROUNDUP FOR EASTERN KANSAS AND NORTHWEST MISSOURI
NATIONAL WEATHER SERVICE KANSAS CITY/PLEASANT HILL MO
1200 AM CDT TUE JUL 22 2014

KSZ040-057-103>105-MOZ028-029-037-043-220600-
...KANSAS CITY METROPOLITAN AREA...

CITY           SKY/WX    TMP DP  RH WIND       PRES   REMARKS
K.C. INTL      PTCLDY    81  73  76 S12       29.98S
K.C. DOWNTOWN  PTCLDY    84  73  69 SW8       29.97S HX  90
LEES SUMMIT    CLEAR     81  73  76 SW9       30.01R
OLATHE - IXD   PTCLDY    80  73  79 S12       30.01R
OLATHE - OJC   PTCLDY    78  73  84 SW8       30.01R
LAWRENCE       PTCLDY    83  74  74 S9        29.99R

$$

MOZ001>008-011>017-020>025-030>033-038>040-044>046-053-054-220600-
...NORTHERN AND CENTRAL MISSOURI...

CITY           SKY/WX    TMP DP  RH WIND       PRES   REMARKS
ST. JOSEPH     PTCLDY    82  73  74 S12       29.95S
MOSBY          PTCLDY    79  73  83 SE3       29.98S
WARRENSBURG    CLEAR     77  72  83 S5        30.01R
WHITEMAN AFB   CLEAR     77  64  65 S7        30.01R
CLINTON        CLEAR     79  73  83 S7        30.03R
SEDALIA        CLEAR     76  69  79 S8        30.04R
WARSAW         NOT AVBL
MARSHALL       CLEAR     77  73  88 SE6       30.02S
CHILLICOTHE      N/A     81  74  79 S7        29.98F
MOBERLY        CLEAR     75  66  73 S5        30.04R
KIRKSVILLE     CLEAR     72  69  90 S7        30.02R

$$

MOZ041-047>049-056>058-063>065-088>090-097-220600-
...EASTERN AND SOUTHERN MISSOURI...

CITY           SKY/WX    TMP DP  RH WIND       PRES   REMARKS
ST. LOUIS INTL CLEAR     79  65  62 S9        30.06S
SPIRIT OF STL  CLEAR     75  66  73 S3        30.04S
COLUMBIA       CLEAR     73  68  84 S7        30.04S
JEFFERSON CITY CLEAR     75  67  76 E6        30.03R
MEXICO         CLEAR     73  72  94 S6        30.04R
HANNIBAL       CLEAR     75  64  69 S5        30.05R
ROLLA          CLEAR     72  65  78 S9        30.07R
LEBANON        CLEAR     72  66  83 S6        30.09S
OSAGE BEACH    CLEAR     75  66  73 S6        30.06R
SPRINGFIELD    CLEAR     75  66  73 SE12      30.08R
BRANSON        CLEAR     73  66  78 CALM      30.11R
NEVADA         CLEAR     75  72  88 SW3       30.05R
JOPLIN         CLEAR     77  72  84 SW7       30.05R
WEST PLAINS    CLEAR     69  64  84 CALM      30.11S
MALDEN         CLEAR     72  66  83 CALM      30.07R

$$

IAZ060-094-KSZ022-034>040-054-083-096-NEZ052-066-093-220600-
...KANSAS...SOUTHEAST NEBRASKA AND IOWA...

CITY           SKY/WX    TMP DP  RH WIND       PRES   REMARKS
TOPEKA         PTCLDY    84  75  74 S9        29.98R HX  92
MANHATTAN      MOCLDY    84  73  69 S10       29.96S HX  90
EMPORIA        MOCLDY    76  73  91 S10       30.01S
CHANUTE        CLEAR     76  73  91 S6        30.04R
WICHITA        CLOUDY    81  75  82 S13       30.01F
OMAHA          MOCLDY    86  75  69 S12       29.87R HX  95
LINCOLN        MOCLDY    89  69  51 SW15      29.90R HX  93
FALLS CITY     CLEAR     83  73  72 S13       29.92R
LAMONI         CLEAR     79  75  87 S10       29.96S
DES MOINES     PTCLDY    83  75  77 S15       29.91S HX  90

$$



USA.gov is the U.S. government's official web portal to all federal, state and local government web resources and services.